Farmingdale, NY

6:03 PM EDT on July 20, 2017 (GMT -0400)
Republic

Weather History for KFRG - December, 2013

Change the Weather History Date:

Monday, December 9, 2013

  Actual Average Record
Temperature  
Mean Temperature 36 °F -  
Max Temperature 42 °F 44 °F 54 °F (1999)
Min Temperature 30 °F 31 °F 19 °F (2010)
Degree Days  
Heating Degree Days 29    
Moisture  
Dew Point 36 °F    
Average Humidity 96    
Maximum Humidity 100    
Minimum Humidity 87    
Precipitation  
Precipitation 0.04 in - - ()
Sea Level Pressure  
Sea Level Pressure 30.10 in    
Wind  
Wind Speed 10 mph (NNE)    
Max Wind Speed 15 mph    
Max Gust Speed 23 mph    
Visibility 5 miles    
Events Rain , Snow    
Averages and records for this station are not official NWS values.
T = Trace of Precipitation, MM = Missing Value Source: NWS Daily Summary

Daily Weather History Graph

Daily Weather History Graph

Search for Another Location

Airport or City:

Trip Planner

Search our weather history database for the weather conditions in past years. The results will help you decide how hot, cold, wet, or windy it might be!

Date:

Astronomy

Dec. 09, 2013 Rise Set
Actual Time 7:06 AM EST 4:26 PM EST
Civil Twilight 6:35 AM EST 4:56 PM EST
Nautical Twilight 6:00 AM EST 5:31 PM EST
Astronomical Twilight 5:27 AM EST 6:04 PM EST
Moon 11:55 AM EST (12/9) No Moon Set
Length of Visible Light 10h 21m
Length of Day
9h 19m
Waxing Crescent, 51% of the Moon is Illuminated
Dec 9
Waxing Crescent
Dec 17
Full
Dec 25
Last Quarter
Jan 1
New
Jan 7
First Quarter

Hourly Weather History & Observations

Time (EST) Temp. Windchill Dew Point Humidity Pressure Visibility Wind Dir Wind Speed Gust Speed Precip Events Conditions
12:04 AM 30.2 °F 20.8 °F 28.4 °F 93% 30.38 in 3.0 mi NE 11.5 mph - N/A   Overcast
12:16 AM 30.2 °F 20.8 °F 28.4 °F 93% 30.38 in 2.5 mi NE 11.5 mph - 0.00 in Snow Light Snow
12:37 AM 30.2 °F 20.8 °F 28.4 °F 93% 30.37 in 2.5 mi NE 11.5 mph - 0.01 in Rain Light Freezing Rain
12:45 AM 30.2 °F 20.2 °F 30.2 °F 100% 30.36 in 3.0 mi NE 12.7 mph - 0.01 in Rain Light Freezing Rain
12:53 AM 30.9 °F 21.2 °F 30.0 °F 96% 30.36 in 3.0 mi ENE 12.7 mph - 0.01 in Rain Light Freezing Rain
1:35 AM 32.0 °F 23.0 °F 30.2 °F 93% 30.33 in 6.0 mi ENE 11.5 mph - 0.00 in   Overcast
1:53 AM 32.0 °F 23.0 °F 30.0 °F 92% 30.32 in 5.0 mi ENE 11.5 mph 20.7 mph 0.00 in   Overcast
2:27 AM 33.8 °F 24.8 °F 30.2 °F 87% 30.32 in 7.0 mi NE 12.7 mph - 0.00 in   Overcast
2:53 AM 32.0 °F 22.5 °F 30.9 °F 96% 30.30 in 5.0 mi NE 12.7 mph 19.6 mph 0.00 in   Overcast
3:06 AM 32.0 °F 22.1 °F 30.2 °F 93% 30.29 in 4.0 mi NE 13.8 mph 23.0 mph 0.00 in Rain Light Freezing Rain
3:53 AM 32.0 °F 22.1 °F 30.9 °F 96% 30.25 in 6.0 mi NE 13.8 mph - 0.00 in   Overcast
4:53 AM 33.1 °F 23.9 °F 30.9 °F 92% 30.21 in 6.0 mi ENE 12.7 mph - 0.00 in   Overcast
5:53 AM 34.0 °F 25.5 °F 32.0 °F 92% 30.17 in 4.0 mi NE 11.5 mph 20.7 mph 0.01 in   Overcast
6:53 AM 35.1 °F 27.4 °F 34.0 °F 96% 30.16 in 2.5 mi NE 10.4 mph - 0.01 in Rain Light Rain
7:53 AM 37.0 °F 31.0 °F 36.0 °F 96% 30.16 in 1.8 mi NNE 8.1 mph - 0.00 in Rain Light Rain
8:09 AM 37.4 °F 32.1 °F 35.6 °F 93% 30.14 in 2.0 mi NE 6.9 mph - 0.00 in Rain Light Rain
8:40 AM 37.4 °F 31.4 °F 37.4 °F 100% 30.15 in 3.0 mi NNE 8.1 mph - 0.00 in Rain Light Rain
8:51 AM 37.4 °F 31.4 °F 37.4 °F 100% 30.12 in 2.5 mi ENE 8.1 mph - 0.01 in Rain Light Rain
8:53 AM 37.9 °F 32.1 °F 37.0 °F 97% 30.12 in 2.5 mi ENE 8.1 mph - 0.01 in Rain Light Rain
9:03 AM 37.4 °F 32.1 °F 37.4 °F 100% 30.10 in 3.0 mi ENE 6.9 mph - 0.00 in Rain Light Rain
9:53 AM 39.9 °F 35.1 °F 39.0 °F 97% 30.09 in 3.0 mi NE 6.9 mph 18.4 mph 0.00 in Rain Light Rain
10:05 AM 39.2 °F 33.0 °F 39.2 °F 100% 30.07 in 2.0 mi ENE 9.2 mph - 0.00 in Rain Light Rain
10:24 AM 41.0 °F 35.2 °F 39.2 °F 93% 30.06 in 1.8 mi NE 9.2 mph - 0.00 in Rain Light Rain
10:53 AM 42.1 °F 37.1 °F 41.0 °F 96% 30.05 in 2.0 mi NNE 8.1 mph - 0.00 in Rain Light Rain
11:01 AM 42.8 °F 38.6 °F 41.0 °F 93% 30.03 in 2.5 mi NNE 6.9 mph - 0.00 in Rain Light Rain
11:27 AM 39.2 °F 32.0 °F 39.2 °F 100% 30.02 in 2.0 mi NNE 11.5 mph - 0.00 in Rain Light Rain
11:40 AM 39.2 °F 31.6 °F 39.2 °F 100% 30.00 in 1.8 mi NNE 12.7 mph - 0.00 in Rain Light Rain
11:53 AM 41.0 °F 33.1 °F 39.9 °F 96% 30.00 in 1.8 mi North 15.0 mph - 0.00 in Rain Light Rain
12:15 PM 39.2 °F 31.2 °F 39.2 °F 100% 29.97 in 2.0 mi NNE 13.8 mph - 0.00 in Rain Light Rain
12:53 PM 39.9 °F 33.9 °F 39.9 °F 100% 29.96 in 4.0 mi North 9.2 mph - 0.00 in Rain Light Rain
12:59 PM 39.2 °F 32.5 °F 39.2 °F 100% 29.96 in 2.0 mi North 10.4 mph - 0.00 in Rain Light Rain
1:18 PM 39.2 °F 33.6 °F 39.2 °F 100% 29.95 in 8.0 mi North 8.1 mph - 0.00 in Rain Light Rain
1:24 PM 39.2 °F 33.0 °F 39.2 °F 100% 29.95 in 3.0 mi North 9.2 mph - 0.00 in Rain Light Rain
1:53 PM 39.9 °F 34.5 °F 39.0 °F 97% 29.95 in 3.0 mi North 8.1 mph - 0.00 in Rain Light Rain
2:53 PM 39.9 °F 35.8 °F 39.0 °F 97% 29.98 in 7.0 mi NW 5.8 mph - 0.00 in Rain Light Rain
3:20 PM 39.2 °F 35.0 °F 39.2 °F 100% 29.97 in 2.5 mi WNW 5.8 mph - 0.00 in Rain Light Rain
3:29 PM 39.2 °F 34.2 °F 39.2 °F 100% 29.98 in 3.0 mi NW 6.9 mph - 0.00 in Rain Light Rain
3:53 PM 39.9 °F - 39.9 °F 100% 29.98 in 7.0 mi Calm Calm - 0.00 in Rain Light Rain
4:53 PM 39.9 °F 35.1 °F 39.0 °F 97% 29.98 in 7.0 mi West 6.9 mph - 0.00 in Rain Light Rain
5:24 PM 39.2 °F 33.0 °F 37.4 °F 93% 29.98 in 6.0 mi West 9.2 mph - 0.00 in Rain Light Rain
5:53 PM 39.0 °F 33.4 °F 37.9 °F 96% 29.99 in 6.0 mi West 8.1 mph - 0.00 in Rain Light Rain
6:53 PM 37.9 °F 31.5 °F 36.0 °F 93% 29.99 in 7.0 mi West 9.2 mph - 0.00 in Rain Light Rain
7:10 PM 39.2 °F 33.6 °F 37.4 °F 93% 30.00 in 8.0 mi West 8.1 mph - 0.00 in Rain Light Rain
7:53 PM 37.9 °F 30.5 °F 35.1 °F 89% 30.02 in 10.0 mi West 11.5 mph - 0.00 in Rain Light Rain
8:05 PM 37.4 °F 31.4 °F 35.6 °F 93% 30.02 in 10.0 mi West 8.1 mph 17.3 mph 0.00 in Rain Light Rain
8:53 PM 36.0 °F 30.3 °F 34.0 °F 93% 30.01 in 10.0 mi WSW 6.9 mph - 0.00 in Rain Light Rain
9:53 PM 36.0 °F 29.6 °F 34.0 °F 93% 30.01 in 10.0 mi West 8.1 mph - 0.00 in Rain Light Rain
10:53 PM 35.1 °F 29.3 °F 33.1 °F 92% 30.01 in 9.0 mi West 6.9 mph - 0.00 in Rain Light Rain
11:53 PM 35.1 °F 28.6 °F 33.1 °F 92% 30.01 in 10.0 mi WSW 8.1 mph - 0.00 in Rain Light Rain